Tracking 20721 objects as of 31-May-2020
HD Live streaming from Space Station
objects crossing your sky now
Track the CREW DRAGON and SPACE STATION

FLOCK 3P 61

Track FLOCK 3P 61 now!
10-day predictions
FLOCK 3P 61 is classified as:


NORAD ID: 42009
Int'l Code: 2017-008BP
Perigee: 488.4 km
Apogee: 499.7 km
Inclination: 97.4 °
Period: 94.3 minutes
Semi major axis: 6865 km
RCS: Unknown
Launch date: February 15, 2017
Source: United States (US)
Launch site: SRIHARIKOTA (SRI)
aabbcc
Your satellite tracking list
Your tracking list is empty




NASA's NSSDC Master Catalog

Two Line Element Set (TLE):
1 42009U 17008BP  20151.71306555  .00001420  00000-0  57506-4 0  9996
2 42009  97.3652 219.6808 0008245  31.6024 328.5708 15.26296457182852
Source of the keplerian elements: AFSPC